This is the latest recevied weather packets stored in our database for station/object VK5FR. If no packets are shown the sender has not sent any weather packets the latest 10 day(s).
| Time | Temp. | Humidity | Pressure | Rain* | Wind** | Luminosity | Snow |
|---|---|---|---|---|---|---|---|
| 1778154843 | 14.44° C | 71% | 1028.6 hPa | 0 mm | - | - | - |
| 1778154538 | 14.44° C | 67% | 1028.7 hPa | 0 mm | - | - | - |
| 1778154235 | 13.89° C | 69% | 1028.5 hPa | 0 mm | - | - | - |
| 1778153932 | 13.89° C | 70% | 1028.6 hPa | 0 mm | - | - | - |
| 1778153630 | 13.89° C | 71% | 1028.6 hPa | 0 mm | - | - | - |
| 1778153327 | 13.89° C | 71% | 1028.6 hPa | 0 mm | - | - | - |
| 1778153024 | 13.89° C | 72% | 1028.5 hPa | 0 mm | - | - | - |
| 1778152721 | 13.89° C | 72% | 1028.7 hPa | 0 mm | - | - | - |
| 1778152418 | 13.89° C | 72% | 1028.7 hPa | 0 mm | - | - | - |
| 1778152114 | 13.89° C | 71% | 1028.7 hPa | 0 mm | - | - | - |
| 1778151810 | 13.89° C | 71% | 1028.6 hPa | 0 mm | - | - | - |
| 1778151508 | 13.89° C | 72% | 1028.7 hPa | 0 mm | - | - | - |
| 1778151204 | 13.89° C | 73% | 1028.6 hPa | 0 mm | - | - | - |
| 1778150901 | 13.89° C | 72% | 1028.8 hPa | 0 mm | - | - | - |
| 1778150597 | 13.89° C | 71% | 1028.7 hPa | 0 mm | - | - | - |
| 1778150294 | 13.89° C | 70% | 1028.6 hPa | 0 mm | - | - | - |
| 1778149990 | 14.44° C | 69% | 1028.6 hPa | 0 mm | - | - | - |
| 1778149687 | 14.44° C | 70% | 1028.8 hPa | 0 mm | - | - | - |
| 1778149384 | 13.89° C | 68% | 1028.4 hPa | 0 mm | - | - | - |
| 1778149080 | 13.89° C | 67% | 1028.5 hPa | 0 mm | - | - | - |
| 1778148779 | 13.89° C | 67% | 1028.9 hPa | 0 mm | - | - | - |
| 1778148477 | 13.89° C | 67% | 1028.7 hPa | 0 mm | - | - | - |
| 1778148175 | 13.89° C | 66% | 1028.5 hPa | 0 mm | - | - | - |
| 1778147873 | 13.89° C | 66% | 1028.5 hPa | 0 mm | - | - | - |
| 1778147569 | 13.89° C | 65% | 1028.5 hPa | 0 mm | - | - | - |
* Rain latest hour (hover to see other rain measurements)
** Current wind speed in m/s (hover to see current wind gust speed)